Find Zhongxing 4

NORAD ID: 21833 Int'l Des: 1991-088 Owner: CHIS Country: CN operational
MEOELLIPTICALHEO_ELLIPTICAL

Live Position

Loading 3D Globe...

About Zhongxing 4

Description loading...

Upcoming Passes

Passes for default location (London). Set your location on the main map for personalized predictions.

Altitude History

Loading altitude history...

Two-Line Element Set

1 21833U 91088A 26106.41704345 -.00000034 00000-0 00000+0 0 9993
2 21833 31.8802 80.6629 6568363 186.0463 158.3170 2.27642897357835
Epoch: Apr 16, 2026 • Age: 18 hours

Current Status

Altitude 17047.3 km
Velocity 4.21 km/s
Sub-Earth Point -22.11°S, 136.06°E
Launch Date Dec 28, 1991
Age 34.3 years
Type other

Technical Details

Classification Payload
Mass 460.00 kg
Dry Mass 460.00 kg
Total Mass 1040.00 kg
Length 1.60 m
Diameter 2.10 m
Span 2.10 m
Shape Cyl + Ant
Manufacturer CAST
Bus Type DFH-2
Phase Status In Orbit
Owner/State CHIS/CN

Most Searched